Regional Weather Roundup
Issued by NWS

Home | Current Version | Previous Version | Graphics & Text | Print | Product List | Glossary On
Versions: 1 2 3 4 5 6 7 8 9 10 11 12 13 14 15 16 17 18 19 20 21 22 23 24 25 26 27 28 29 30 31 32 33 34 35 36 37 38 39 40 41 42 43 44 45 46 47 48 49 50
000
ASUS43 KBIS 250410
RWRND

NORTH DAKOTA REGIONAL WEATHER ROUNDUP
NATIONAL WEATHER SERVICE BISMARCK ND
1100 PM CDT MON APR 24 2017

NOTE: "FAIR" INDICATES FEW OR NO CLOUDS BELOW 12,000 FEET WITH NO
SIGNIFICANT WEATHER AND/OR OBSTRUCTIONS TO VISIBILITY.


NDZ001>003-009>011-017-250500-
NORTHWEST NORTH DAKOTA

CITY           SKY/WX    TMP DP  RH WIND       PRES   REMARKS
WILLISTON      CLOUDY    31  26  82 NE14      29.82R
MINOT          CLOUDY    32  28  85 N16       29.79R
MINOT AFB      CLOUDY    32  27  80 NE18      29.79R
$$

NDZ018>021-031>035-040>046-250500-
SOUTHWEST NORTH DAKOTA

CITY           SKY/WX    TMP DP  RH WIND       PRES   REMARKS
BISMARCK       CLOUDY    35  30  82 N16       29.74S
DICKINSON      CLOUDY    29  27  92 NE12      29.72R WCI  19
GARRISON         N/A     31  26  82 NE10      29.77R
HETTINGER ARPT CLOUDY    33  30  88 NE15      29.70S
$$

NDZ004>008-012>016-024-026-027-054-250500-
NORTHEAST NORTH DAKOTA

CITY           SKY/WX    TMP DP  RH WIND       PRES   REMARKS
GRAND FORKS    CLOUDY    34  33  96 N18       29.68S
GRND FRKS AFB  CLOUDY    32  32  99 N20       29.69S
DEVILS LAKE    CLOUDY    31  28  89 N20G26    29.75R WCI  19
$$

NDZ022-023-025-028>030-036>039-047>053-250500-
SOUTHEAST NORTH DAKOTA

CITY           SKY/WX    TMP DP  RH WIND       PRES   REMARKS
FARGO          CLOUDY    37  35  92 N21G26    29.61S
JAMESTOWN      CLOUDY    33  31  92 N16G24    29.68R
$$




USA.gov is the U.S. government's official web portal to all federal, state and local government web resources and services.